IW9CTJ-13 Weather Reports


Display with metric or nautical units.
time (UTC)temp
F
wind
direction
speed
MPH
gust
MPH
rain 1hr
in
rain 24hr
in
rain mn
in
humidity
%
barometer
mb
20260906083056 90 126 0.0 0.0 0.00 0.00 0.00 38 1019.2
20260906081558 90 62 0.0 0.0 0.00 0.00 0.00 38 1019.1
20260906080109 89 140 0.0 0.0 0.00 0.00 0.00 40 1019.0
20260906074604 89 103 0.0 0.0 0.00 0.00 0.00 42 1019.0
20260906073104 88 161 0.0 0.0 0.00 0.00 0.00 45 1018.8
20260906071548 87 180 0.0 0.0 0.00 0.00 0.00 48 1018.7
20260906070045 87 264 0.0 0.0 0.00 0.00 0.00 52 1018.6
20260906064542 85 264 0.0 0.0 0.00 0.00 0.00 50 1018.5
20260906063047 84 264 0.0 0.0 0.00 0.00 0.00 51 1018.5
20260906061541 84 254 0.0 0.0 0.00 0.00 0.00 49 1018.5
20260906060036 82 263 0.0 0.0 0.00 0.00 0.00 47 1018.3
20260906054538 82 264 0.0 0.0 0.00 0.00 0.00 46 1018.3
20260906053035 80 272 0.0 0.0 0.00 0.00 0.00 48 1018.2
20260906051552 80 275 0.0 0.0 0.00 0.00 0.00 49 1018.0
20260906050039 79 275 0.0 0.0 0.00 0.00 0.00 51 1018.0
20260906044541 78 275 0.0 0.0 0.00 0.00 0.00 53 1018.1
20260906043036 79 275 0.0 0.0 0.00 0.00 0.00 53 1018.0
20260906041531 79 275 0.0 0.0 0.00 0.00 0.00 54 1017.9
20260906040036 79 275 0.0 0.0 0.00 0.00 0.00 55 1017.8
20260906034537 79 275 0.0 0.0 0.00 0.00 0.00 54 1017.7
20260906033029 79 275 0.0 0.0 0.00 0.00 0.00 54 1017.7
20260906031537 79 275 0.0 0.0 0.00 0.00 0.00 53 1017.7
20260906030027 79 275 0.0 0.0 0.00 0.00 0.00 53 1017.6
20260906024527 79 275 0.0 0.0 0.00 0.00 0.00 52 1017.5
20260906023026 79 275 0.0 0.0 0.00 0.00 0.00 52 1017.5
20260906021525 80 275 0.0 0.0 0.00 0.00 0.00 52 1017.5
20260906020023 80 275 0.0 0.0 0.00 0.00 0.00 51 1017.7
20260906014528 80 275 0.0 0.0 0.00 0.00 0.00 51 1017.7
20260906013024 80 275 0.0 0.0 0.00 0.00 0.00 51 1017.8
20260906011520 80 275 0.0 0.0 0.00 0.00 0.00 51 1017.8
20260906010018 80 272 0.0 0.0 0.00 0.00 0.00 51 1017.9
20260906004517 80 272 0.0 0.0 0.00 0.00 0.00 53 1017.9
20260906003015 81 268 0.0 0.0 0.00 0.00 0.00 55 1018.0
20260906001512 81 264 0.0 0.0 0.00 0.00 0.00 57 1018.0
20260906000010 82 264 0.0 0.0 0.00 0.00 0.00 58 1018.2
20260905234508 82 263 0.0 0.0 0.00 0.00 0.00 61 1018.3
20260905233008 82 263 0.0 0.0 0.00 0.00 0.00 61 1018.4
20260905231515 82 263 0.0 0.0 0.00 0.00 0.00 60 1018.3
20260905230004 82 263 0.0 0.0 0.00 0.00 0.00 60 1018.5
20260905224503 82 263 0.0 0.0 0.00 0.00 0.00 60 1018.5
20260905223059 83 263 0.0 0.0 0.00 0.00 0.00 61 1018.4
20260905221557 83 263 0.0 0.0 0.00 0.00 0.00 64 1018.5
20260905214553 83 55 0.0 0.0 0.00 0.00 0.00 64 1018.5
20260905213053 84 55 0.0 0.0 0.00 0.00 0.00 64 1018.5
20260905211553 84 52 0.0 0.0 0.00 0.00 0.00 60 1018.2
20260905210104 85 51 0.0 0.0 0.00 0.00 0.00 57 1018.3
20260905204556 85 51 0.0 0.0 0.00 0.00 0.00 57 1018.3
20260905203108 85 51 0.0 0.0 0.00 0.00 0.00 57 1018.3
20260905201552 85 51 0.0 0.0 0.00 0.00 0.00 57 1018.4
20260905200056 85 51 0.0 0.0 0.00 0.00 0.00 58 1018.5
20260905194550 85 51 0.0 0.0 0.00 0.00 0.00 57 1018.6
20260905193049 85 51 0.0 0.0 0.00 0.00 0.00 58 1018.5
20260905191549 85 52 0.0 0.0 0.00 0.00 0.00 57 1018.5
20260905190048 86 52 0.0 0.0 0.00 0.00 0.00 57 1018.2
20260905184549 86 51 0.0 0.0 0.00 0.00 0.00 56 1018.2
20260905183047 86 47 0.0 0.0 0.00 0.00 0.00 54 1018.1
20260905181548 86 77 0.0 0.0 0.00 0.00 0.00 52 1018.0
20260905180047 86 56 0.0 0.0 0.00 0.00 0.00 51 1017.8
20260905174550 87 44 0.0 0.0 0.00 0.00 0.00 50 1017.7
20260905173046 87 80 0.0 0.0 0.00 0.00 0.00 49 1017.7
20260905171557 87 36 0.0 0.0 0.00 0.00 0.00 51 1017.7
20260905170047 88 94 0.0 0.0 0.00 0.00 0.00 50 1017.9
20260905164548 88 52 0.0 0.0 0.00 0.00 0.00 48 1017.9
20260905163052 88 86 0.0 0.0 0.00 0.00 0.00 50 1017.8
20260905161544 88 77 0.0 4.0 0.00 0.00 0.00 54 1017.8
20260905160043 88 121 0.0 0.0 0.00 0.00 0.00 55 1017.7
20260905154555 89 108 0.0 0.0 0.00 0.00 0.00 55 1017.7
20260905153041 89 46 0.0 5.0 0.00 0.00 0.00 56 1017.7
20260905151541 88 92 0.0 2.0 0.00 0.00 0.00 57 1017.7
20260905150045 89 119 0.0 3.0 0.00 0.00 0.00 56 1017.6
20260905144540 88 145 0.0 4.0 0.00 0.00 0.00 59 1017.7
20260905143042 90 68 0.0 6.0 0.00 0.00 0.00 54 1017.7
20260905141538 90 126 0.0 6.0 0.00 0.00 0.00 55 1017.7
20260905140037 89 75 0.0 6.0 0.00 0.00 0.00 57 1017.8
20260905134537 90 56 0.0 9.0 0.00 0.00 0.00 54 1017.7
20260905133036 91 118 1.0 8.0 0.00 0.00 0.00 49 1017.7
20260905131538 91 63 0.0 9.0 0.00 0.00 0.00 46 1017.7
20260905130035 91 61 1.0 10.0 0.00 0.00 0.00 40 1017.7
20260905124535 91 53 0.0 11.0 0.00 0.00 0.00 41 1017.7
20260905123038 90 38 2.0 10.0 0.00 0.00 0.00 42 1018.0
20260905121537 90 57 0.0 10.0 0.00 0.00 0.00 45 1018.1
20260905120036 91 55 0.0 9.0 0.00 0.00 0.00 45 1018.2
20260905114531 90 61 0.0 5.0 0.00 0.00 0.00 45 1018.3
20260905113030 91 79 0.0 5.0 0.00 0.00 0.00 46 1018.3
20260905111530 91 65 0.0 4.0 0.00 0.00 0.00 47 1018.5
20260905110028 91 64 0.0 4.0 0.00 0.00 0.00 47 1018.5
20260905104528 90 92 0.0 4.0 0.00 0.00 0.00 49 1018.6
20260905103028 90 76 0.0 2.0 0.00 0.00 0.00 51 1018.6
20260905101529 90 121 0.0 4.0 0.00 0.00 0.00 54 1018.7
20260905100026 89 86 0.0 3.0 0.00 0.00 0.00 54 1018.7
20260905094547 90 109 0.0 2.0 0.00 0.00 0.00 52 1018.8
20260905093024 90 119 0.0 3.0 0.00 0.00 0.00 49 1018.9
20260905091523 91 128 0.0 0.0 0.00 0.00 0.00 46 1018.9
20260905090020 90 222 0.0 1.0 0.00 0.00 0.00 45 1018.9
20260905084519 90 94 0.0 0.0 0.00 0.00 0.00 48 1018.9